Regional Weather Roundup
Issued by NWS Charleston, SC

Current Version | Previous Version | Graphics & Text | Print | Product List | Glossary On
Versions: 1 2 3 4 5 6 7 8 9 10 11 12 13 14 15 16 17 18 19 20 21 22 23 24 25 26 27 28 29 30 31 32 33 34 35 36 37 38 39 40 41 42 43 44 45 46 47 48 49 50
000
ASUS42 KCHS 250812
RWRCHS
REGIONAL WEATHER ROUNDUP
NATIONAL WEATHER SERVICE CHARLESTON SC
400 AM EDT SAT APR 25 2015

NOTE: "FAIR" INDICATES FEW OR NO CLOUDS BELOW 12,000 FEET WITH NO
SIGNIFICANT WEATHER AND/OR OBSTRUCTIONS TO VISIBILITY.

NOT ALL STATIONS ARE QUALITY CONTROLLED BY THE NATIONAL
WEATHER SERVICE. USE DATA WITH CAUTION...ESPECIALLY
DEWPOINT OBSERVATIONS.

SCZ027-030-031-034>040-042>050-250900-
...SOUTHEAST SOUTH CAROLINA...

CITY           SKY/WX    TMP DP  RH WIND       PRES   REMARKS
N CHARLESTON   CLOUDY    59  51  75 S3        29.94F
WATERFRONT PRK NOT AVBL
MOUNT PLEASANT FAIR      55  54  94 MISG      29.94F
PINOPOLIS      NOT AVBL
MONCKS CORNER  FAIR      55  50  82 CALM      29.93F
SUMMERVILLE    FAIR      55  52  88 CALM      29.95F
BEAUFORT MCAS  CLOUDY    68  58  70 S3        29.92F
BEAUFORT ARPT  NOT AVBL
HILTON HEAD IS CLOUDY    68  59  73 S3        29.93F
WALTERBORO     CLOUDY    55  52  88 E5        29.93F
ALLENDALE      PTSUNNY   59  52  77 CALM      29.92S

...SOUTHERN MIDLANDS AND PEE DEE...

CITY           SKY/WX    TMP DP  RH WIND       PRES   REMARKS
GEORGETOWN     NOT AVBL
KINGSTREE      NOT AVBL
ORANGEBURG     CLOUDY    58  48  69 CALM      29.93F
BARNWELL       FAIR      61  52  72 CALM      29.93S
AIKEN          DRIZZLE   59  45  58 SE3       29.95F
MANNING        RAIN      59  41  51 CALM      29.93F
COLUMBIA       CLOUDY    61  46  57 S5        29.92F
SUMTER         CLOUDY    59  47  66 S3        29.91F
FLORENCE       CLOUDY    57  47  69 S7        29.94F
MYRTLE BEACH   MOCLDY    57  46  67 SW5       29.98S
N MYRTLE BEACH MOCLDY    53  49  86 CALM      29.95S

$$

GAZ063-065-086>088-099>101-113>116-118-119-134>141-150-250900-
...SOUTHEAST GEORGIA...

CITY           SKY/WX    TMP DP  RH WIND       PRES   REMARKS
SAVANNAH ARPT  CLOUDY    64  55  72 SE5       29.92F
HUNTER AAF     CLOUDY    67  60  77 SE5       29.89F
FORT STEWART   CLOUDY    62  54  77 CALM      29.90F
STATESBORO       N/A     61  53  73 CALM      29.90F
SYLVANIA       CLOUDY    61  53  76 CALM      29.91F
CLAXTON        FAIR      61  55  82 CALM      29.91F

...CSRA...CENTRAL AND FAR SOUTHEAST GEORGIA...

CITY           SKY/WX    TMP DP  RH WIND       PRES   REMARKS
THOMSON        CLOUDY    64  55  72 CALM      29.95S
AUGUSTA-BUSH   CLOUDY    59  50  72 CALM      29.92F
AUGUSTA-DANIEL CLOUDY    61  50  67 SE5       29.92F
SWAINSBORO     NOT AVBL
VIDALIA        CLOUDY    63  54  72 S6        29.91F
EASTMAN        FAIR      62  56  81 S5        29.92F
HAZLEHURST     FAIR      63  56  77 S5        29.90F
ALMA           PTCLDY    61  55  81 SE3       29.91F
WAYCROSS       PTCLDY    65  60  83 CALM      29.91F
JESUP          FAIR      63  59  88 CALM      29.92F
BAXLEY         FAIR      63  55  77 CALM      29.91F
BRUNSWICK      MOCLDY    70  61  73 SE3       29.92F
SAINT SIMONS   MOCLDY    69  62  78 SE8       29.91F

$$

SCZ027-028-034-036>038-045-046-048>050-GAZ119-141-250900-
...LAKE AND SUPPLEMENTAL COASTAL OBSERVATIONS...

STATION/POSITION TIME  TEMP    WIND        PRES    WAVE   SWELL
                       AIR SEA DIR/SP/G            HT/PER HT/PER/DIR
                 (UTC) (F)     (DEG/KT/KT) (MB)    (FT/S) (FT/S/D)
UPR LAKE MARION  NOT AVBL
WINYAH BAY       NOT AVBL
LAKE MURRAY      0700   62     190/ 10/ 12 1012.9F
ACE BASIN NERRS  NOT AVBL
FORT PULASKI     0700   68 70  140/  5/  8 1014.4F
SAPELO ISLAND    NOT AVBL

$$

ANZ835-935-AMZ111-154-330-350-352-354-370-450-454-472-250900-
...C-MAN AND BUOY OBSERVATIONS...

STATION/POSITION TIME  TEMP    WIND        PRES    WAVE   SWELL
                       AIR SEA DIR/SP/G            HT/PER HT/PER/DIR
                 (UTC) (F)     (DEG/KT/KT) (MB)    (FT/S) (FT/S/D)
BUOY 41004       0750   69 72  180/  8/ 10 1014.3F   3/10   3/10
BUOY 41008       0750   69 69  140/  8/ 10 1013.6F   3/ 9   3/ 80/ 9
FOLLY BEACH CMAN 0800   68     180/  9/ 10 1014.0F
CAPERS NEARSHORE 0708   68     210/ 10/ 14   N/A
FRIPP NEARSHORE  0700   69     160/ 12/ 16 1013.6F


STATION/POSITION TIME  TEMP    WIND        PRES    WAVE   SWELL
                       AIR SEA DIR/SP/G            HT/PER HT/PER/DIR
                 (UTC) (F)     (DEG/KT/KT) (MB)    (FT/S) (FT/S/D)
5E ST. MARYS GA  0721      70                N/A     3/10   2/100/15
FRYING PAN BUOY  0750   67 71  210/  8/ 12 1015.1F   2/ 8   2/ 70/ 8
BUOY 41025       0750   65 72  250/ 16/ 17 1013.4F   4/ 8   3/ 70/ 8
CAPE LOOKOUT NC  0800   61     260/  8/ 10 1013.9R
BUOY 41002       0750   63 70   20/  2/  6 1016.2F   5/ 8   5/ 8
BUOY 41010       0720   74 78  110/ 10/ 12 1014.2F
ST AUGUSTINE FL  0800   72 68  150/ 12/ 14 1013.7F


$$



USA.gov is the U.S. government's official web portal to all federal, state and local government web resources and services.